contact:dominique.lefevre@mio.osupytheas.fr, maurice.libes@osupytheas.fr, didier.mallarino@osupytheas.fr
Project:EMSO http://www.emso-fr.org/EMSO-France
Depth: 2436.0 m
Title:EMSO Ligure Ouest : Data MII capteur AQUADOPP
Date,Latitude,Longitude,X_East,Y_North,Z_Up,Amplitude_X,Amplitude_Y,Amplitude_Z,Batterie,SoundSpeed,Heading,Pitch,Roll,Pressure,TIS,Speed,Direction
, degrees North, degrees East, m.s-1, m.s-1,m.s-1, 1, 1, 1, Volt, m.s-1, degree, degree, degree, dbar, degree_C, m.s-1, degree
2023-09-27T00:04:03,42.805,6.029,-0.012,0.001,0.015,104.0,103.0,103.0,13.4,1505.2,351.4,-0.8,1.8,2471.445,13.29,0.012,274.8
2023-09-27T00:07:03,42.805,6.029,0.003,-0.015,-0.037,103.0,103.0,102.0,13.3,1505.2,351.4,-0.8,1.8,2471.455,13.29,0.015,168.7
2023-09-27T00:10:03,42.805,6.029,0.006,-0.009,-0.024,103.0,102.0,102.0,13.4,1505.2,328.0,-0.8,1.8,2471.438,13.29,0.01,146.3
2023-09-27T00:13:03,42.805,6.029,-0.017,0.0,-0.021,102.0,103.0,102.0,13.4,1505.2,325.7,-0.8,1.8,2471.435,13.29,0.017,270.0
2023-09-27T00:16:03,42.805,6.029,0.002,-0.009,-0.015,102.0,102.0,101.0,13.4,1505.2,334.3,-0.7,1.8,2471.432,13.29,0.009,167.5
2023-09-27T00:19:03,42.805,6.029,-0.027,-0.005,-0.048,103.0,102.0,102.0,13.3,1505.2,346.5,-0.8,1.8,2471.433,13.29,0.027,259.5
2023-09-27T00:22:03,42.805,6.029,0.003,-0.031,-0.027,103.0,103.0,101.0,13.4,1505.2,350.8,-0.7,1.8,2471.367,13.29,0.031,174.5
2023-09-27T00:25:03,42.805,6.029,-0.015,-0.012,-0.025,104.0,103.0,101.0,13.4,1505.2,329.1,-0.8,1.8,2471.42,13.29,0.019,231.3
2023-09-27T00:28:03,42.805,6.029,0.009,-0.01,-0.012,102.0,102.0,102.0,13.4,1505.2,343.9,-0.8,1.8,2471.384,13.29,0.013,138.0
2023-09-27T00:31:03,42.805,6.029,-0.025,-0.027,-0.048,104.0,102.0,101.0,13.4,1505.2,339.8,-0.8,1.8,2471.399,13.29,0.036,222.8
2023-09-27T00:34:03,42.805,6.029,0.02,-0.004,-0.039,103.0,104.0,101.0,13.3,1505.2,349.0,-0.8,1.8,2471.39,13.29,0.02,101.3
2023-09-27T00:37:03,42.805,6.029,0.0,-0.01,-0.022,103.0,102.0,102.0,13.4,1505.2,335.7,-0.8,1.8,2471.368,13.29,0.01,180.0
2023-09-27T00:40:03,42.805,6.029,-0.003,-0.007,-0.007,102.0,103.0,101.0,13.3,1505.2,332.1,-0.8,1.8,2471.402,13.29,0.007,203.2
2023-09-27T00:43:03,42.805,6.029,0.003,-0.009,-0.017,103.0,102.0,101.0,13.4,1505.2,338.0,-0.7,1.8,2471.414,13.29,0.009,161.6
2023-09-27T00:46:03,42.805,6.029,-0.002,0.0,-0.008,105.0,102.0,101.0,13.4,1505.2,356.8,-0.8,1.8,2471.392,13.29,0.002,270.0
2023-09-27T00:49:03,42.805,6.029,0.0,-0.029,-0.055,104.0,102.0,102.0,13.4,1505.2,349.0,-0.8,1.8,2471.369,13.29,0.028,180.0
2023-09-27T00:52:03,42.805,6.029,0.0,0.003,-0.029,104.0,102.0,102.0,13.4,1505.2,327.0,-0.8,1.8,2471.396,13.29,0.003,0.0
2023-09-27T00:55:03,42.805,6.029,-0.001,-0.006,-0.047,103.0,103.0,103.0,13.4,1505.2,342.9,-0.7,1.8,2471.432,13.29,0.006,189.5
2023-09-27T00:58:03,42.805,6.029,0.0,0.0,0.004,104.0,102.0,102.0,13.4,1505.2,341.9,-0.8,1.8,2471.378,13.29,0.0,0.0
2023-09-27T01:04:03,42.805,6.029,-0.024,0.003,-0.032,104.0,104.0,102.0,13.4,1505.2,329.4,-0.8,1.8,2471.435,13.28,0.024,277.1
2023-09-27T01:07:03,42.805,6.029,0.019,-0.038,-0.049,103.0,103.0,102.0,13.3,1505.2,328.7,-0.7,1.8,2471.449,13.28,0.042,153.4
2023-09-27T01:10:03,42.805,6.029,-0.005,-0.01,-0.008,103.0,102.0,102.0,13.4,1505.2,339.8,-0.8,1.8,2471.455,13.29,0.011,206.6
2023-09-27T01:13:03,42.805,6.029,-0.009,-0.02,-0.02,104.0,102.0,101.0,13.4,1505.2,335.6,-0.7,1.8,2471.401,13.29,0.021,204.2
2023-09-27T01:16:03,42.805,6.029,-0.001,-0.03,0.003,104.0,103.0,102.0,13.4,1505.2,353.1,-0.8,1.8,2471.43,13.29,0.03,181.9
2023-09-27T01:19:03,42.805,6.029,-0.01,-0.007,-0.053,103.0,102.0,103.0,13.3,1505.2,328.7,-0.8,1.8,2471.423,13.29,0.012,235.0
2023-09-27T01:22:03,42.805,6.029,0.006,-0.018,-0.002,103.0,103.0,102.0,13.3,1505.2,348.4,-0.7,1.8,2471.428,13.29,0.018,161.6
2023-09-27T01:25:03,42.805,6.029,-0.018,-0.001,-0.017,103.0,102.0,102.0,13.4,1505.2,338.5,-0.8,1.8,2471.393,13.29,0.018,266.8
2023-09-27T01:28:03,42.805,6.029,0.008,-0.014,-0.032,104.0,102.0,101.0,13.4,1505.2,338.8,-0.8,1.8,2471.393,13.29,0.016,150.3
2023-09-27T01:31:03,42.805,6.029,-0.003,-0.017,-0.019,102.0,103.0,103.0,13.4,1505.2,330.3,-0.8,1.8,2471.382,13.29,0.017,190.0
2023-09-27T01:34:03,42.805,6.029,0.003,-0.032,-0.023,104.0,103.0,102.0,13.4,1505.2,333.0,-0.8,1.8,2471.431,13.29,0.032,174.6
2023-09-27T01:37:03,42.805,6.029,0.005,-0.024,0.001,103.0,103.0,102.0,13.4,1505.2,334.9,-0.8,1.8,2471.422,13.29,0.024,168.2
2023-09-27T01:40:03,42.805,6.029,0.0,-0.015,-0.043,104.0,104.0,101.0,13.3,1505.2,336.2,-0.8,1.8,2471.426,13.29,0.015,180.0
2023-09-27T01:43:03,42.805,6.029,-0.009,-0.02,-0.052,103.0,102.0,101.0,13.4,1505.2,333.8,-0.8,1.8,2471.403,13.29,0.021,204.2
2023-09-27T01:46:03,42.805,6.029,-0.015,-0.007,-0.02,104.0,103.0,103.0,13.3,1505.2,327.8,-0.8,1.8,2471.433,13.29,0.016,245.0
2023-09-27T01:49:03,42.805,6.029,-0.026,-0.012,-0.023,103.0,102.0,102.0,13.3,1505.2,343.2,-0.7,1.8,2471.384,13.29,0.028,245.2
2023-09-27T01:52:03,42.805,6.029,-0.017,-0.009,-0.038,103.0,104.0,102.0,13.4,1505.2,347.6,-0.7,1.8,2471.45,13.29,0.019,242.1
2023-09-27T01:55:03,42.805,6.029,-0.002,-0.002,-0.038,103.0,102.0,101.0,13.4,1505.2,346.7,-0.8,1.9,2471.428,13.29,0.002,225.0
2023-09-27T01:58:03,42.805,6.029,-0.02,-0.021,-0.046,104.0,103.0,102.0,13.3,1505.2,347.8,-0.8,1.8,2471.382,13.29,0.028,223.6
2023-09-27T02:04:03,42.805,6.029,-0.012,0.015,-0.015,104.0,101.0,101.0,13.4,1505.2,333.8,-0.8,1.8,2471.443,13.28,0.019,321.3
2023-09-27T02:07:03,42.805,6.029,-0.009,-0.005,-0.01,103.0,102.0,102.0,13.3,1505.2,335.8,-0.7,1.8,2471.493,13.29,0.01,240.9
2023-09-27T02:10:03,42.805,6.029,0.007,-0.011,-0.021,102.0,104.0,101.0,13.4,1505.2,336.0,-0.8,1.8,2471.464,13.29,0.013,147.5
2023-09-27T02:13:03,42.805,6.029,-0.023,0.014,-0.009,103.0,102.0,101.0,13.4,1505.2,353.8,-0.7,1.8,2471.456,13.29,0.026,301.3
2023-09-27T02:16:03,42.805,6.029,-0.016,-0.04,-0.048,103.0,103.0,102.0,13.4,1505.2,329.8,-0.8,1.8,2471.466,13.29,0.043,201.8
2023-09-27T02:19:03,42.805,6.029,0.023,-0.003,0.007,104.0,103.0,102.0,13.4,1505.2,333.8,-0.8,1.8,2471.46,13.29,0.023,97.4
2023-09-27T02:22:03,42.805,6.029,0.013,0.007,0.016,102.0,102.0,102.0,13.3,1505.2,341.2,-0.7,1.8,2471.433,13.29,0.014,61.7
2023-09-27T02:25:03,42.805,6.029,-0.018,0.004,-0.035,103.0,102.0,103.0,13.4,1505.2,357.0,-0.8,1.8,2471.498,13.29,0.018,282.5
2023-09-27T02:28:03,42.805,6.029,-0.004,-0.01,-0.022,105.0,100.0,102.0,13.3,1505.2,329.4,-0.8,1.8,2471.433,13.29,0.01,201.8
2023-09-27T02:31:03,42.805,6.029,-0.008,-0.009,-0.039,103.0,102.0,102.0,13.3,1505.2,337.6,-0.7,1.8,2471.438,13.29,0.012,221.6
2023-09-27T02:34:03,42.805,6.029,0.0,-0.012,-0.032,102.0,104.0,101.0,13.3,1505.2,346.2,-0.8,1.8,2471.471,13.29,0.012,180.0
2023-09-27T02:37:03,42.805,6.029,-0.031,-0.008,-0.012,104.0,103.0,102.0,13.3,1505.2,342.8,-0.8,1.8,2471.432,13.29,0.032,255.5
2023-09-27T02:40:03,42.805,6.029,-0.009,0.001,-0.05,103.0,102.0,102.0,13.3,1505.2,355.6,-0.7,1.8,2471.48,13.29,0.009,276.3
2023-09-27T02:43:03,42.805,6.029,0.0,-0.015,-0.031,103.0,102.0,101.0,13.4,1505.2,328.2,-0.7,1.8,2471.458,13.29,0.015,180.0
2023-09-27T02:46:03,42.805,6.029,-0.015,-0.01,-0.011,101.0,103.0,102.0,13.4,1505.2,339.6,-0.8,1.8,2471.48,13.29,0.018,236.3
2023-09-27T02:49:03,42.805,6.029,-0.013,-0.004,-0.024,102.0,102.0,102.0,13.4,1505.2,334.9,-0.8,1.8,2471.452,13.29,0.013,252.9
2023-09-27T02:52:03,42.805,6.029,-0.005,0.0,-0.019,103.0,102.0,101.0,13.4,1505.2,330.6,-0.7,1.8,2471.425,13.29,0.005,270.0
2023-09-27T02:55:03,42.805,6.029,0.002,0.008,-0.02,103.0,101.0,102.0,13.3,1505.2,347.0,-0.8,1.8,2471.473,13.29,0.008,14.0
2023-09-27T02:58:03,42.805,6.029,0.021,-0.011,-0.006,101.0,103.0,102.0,13.3,1505.2,348.0,-0.8,1.8,2471.461,13.29,0.023,117.6
2023-09-27T03:04:03,42.805,6.029,-0.008,-0.021,-0.017,103.0,103.0,102.0,13.3,1505.2,354.5,-0.8,1.8,2471.493,13.28,0.022,200.9
2023-09-27T03:07:03,42.805,6.029,0.001,-0.005,-0.008,103.0,102.0,102.0,13.3,1505.2,354.6,-0.8,1.8,2471.5,13.28,0.005,168.7
2023-09-27T03:10:03,42.805,6.029,0.002,-0.017,-0.045,102.0,102.0,102.0,13.4,1505.2,349.1,-0.8,1.8,2471.496,13.29,0.017,173.3
2023-09-27T03:13:03,42.805,6.029,0.015,-0.017,-0.011,104.0,103.0,102.0,13.3,1505.2,347.0,-0.8,1.8,2471.519,13.29,0.022,138.6
2023-09-27T03:16:03,42.805,6.029,0.01,-0.018,-0.014,102.0,102.0,103.0,13.4,1505.2,336.0,-0.7,1.8,2471.54,13.29,0.02,150.9
2023-09-27T03:19:03,42.805,6.029,0.002,0.006,-0.012,102.0,103.0,102.0,13.4,1505.2,340.9,-0.8,1.8,2471.505,13.29,0.006,18.4
2023-09-27T03:22:03,42.805,6.029,-0.005,-0.001,-0.026,102.0,103.0,101.0,13.4,1505.2,337.3,-0.7,1.8,2471.504,13.29,0.005,258.7
2023-09-27T03:25:03,42.805,6.029,-0.006,-0.01,-0.014,104.0,102.0,102.0,13.4,1505.2,348.5,-0.7,1.8,2471.509,13.29,0.011,211.0
2023-09-27T03:28:03,42.805,6.029,-0.002,-0.009,-0.034,104.0,104.0,102.0,13.4,1505.2,334.8,-0.8,1.8,2471.51,13.29,0.009,192.5
2023-09-27T03:31:03,42.805,6.029,-0.004,-0.012,-0.014,102.0,103.0,102.0,13.4,1505.2,338.9,-0.8,1.8,2471.499,13.29,0.012,198.4
2023-09-27T03:34:03,42.805,6.029,-0.019,-0.015,-0.033,103.0,103.0,102.0,13.3,1505.2,356.9,-0.8,1.8,2471.505,13.29,0.024,231.7
2023-09-27T03:37:03,42.805,6.029,0.026,-0.008,-0.001,103.0,103.0,102.0,13.3,1505.2,341.5,-0.8,1.8,2471.46,13.29,0.027,107.1
2023-09-27T03:40:03,42.805,6.029,-0.012,-0.02,-0.041,103.0,103.0,102.0,13.3,1505.2,352.8,-0.8,1.8,2471.517,13.29,0.023,211.0
2023-09-27T03:43:03,42.805,6.029,-0.014,-0.014,-0.037,103.0,103.0,102.0,13.4,1505.2,329.3,-0.7,1.8,2471.455,13.29,0.019,225.0
2023-09-27T03:46:03,42.805,6.029,-0.018,-0.006,-0.035,103.0,103.0,103.0,13.4,1505.2,349.5,-0.8,1.8,2471.5,13.29,0.018,251.6
2023-09-27T03:49:03,42.805,6.029,0.011,-0.001,-0.035,103.0,104.0,102.0,13.4,1505.2,344.8,-0.7,1.8,2471.495,13.29,0.011,95.2
2023-09-27T03:52:03,42.805,6.029,0.011,-0.021,-0.019,102.0,103.0,102.0,13.4,1505.2,341.2,-0.8,1.8,2471.509,13.29,0.023,152.4
2023-09-27T03:55:03,42.805,6.029,-0.008,-0.019,-0.06,103.0,103.0,103.0,13.4,1505.2,341.2,-0.8,1.8,2471.532,13.29,0.02,202.8
2023-09-27T03:58:03,42.805,6.029,0.011,0.0,-0.017,103.0,103.0,102.0,13.3,1505.2,332.5,-0.8,1.8,2471.524,13.29,0.011,90.0
2023-09-27T04:04:03,42.805,6.029,-0.006,0.001,-0.011,104.0,103.0,102.0,13.4,1505.2,332.2,-0.8,1.8,2471.519,13.28,0.006,279.5
2023-09-27T04:07:03,42.805,6.029,-0.011,-0.005,-0.046,103.0,102.0,102.0,13.3,1505.2,350.5,-0.8,1.8,2471.561,13.29,0.012,245.6
2023-09-27T04:10:03,42.805,6.029,-0.023,-0.008,-0.032,105.0,103.0,101.0,13.4,1505.2,349.8,-0.8,1.8,2471.53,13.29,0.024,250.8
2023-09-27T04:13:03,42.805,6.029,-0.01,-0.015,-0.053,103.0,103.0,102.0,13.3,1505.2,351.6,-0.8,1.8,2471.504,13.29,0.018,213.7
2023-09-27T04:16:03,42.805,6.029,-0.009,-0.006,-0.022,106.0,104.0,102.0,13.3,1505.2,336.1,-0.8,1.8,2471.532,13.29,0.01,236.3
2023-09-27T04:19:03,42.805,6.029,0.003,-0.01,-0.033,102.0,105.0,103.0,13.4,1505.2,338.5,-0.7,1.8,2471.534,13.29,0.01,163.3
2023-09-27T04:22:03,42.805,6.029,0.01,0.001,-0.009,104.0,103.0,102.0,13.4,1505.2,335.2,-0.8,1.8,2471.502,13.29,0.01,84.3
2023-09-27T04:25:03,42.805,6.029,0.002,-0.01,-0.028,105.0,104.0,101.0,13.4,1505.2,339.5,-0.8,1.8,2471.506,13.29,0.01,168.7
2023-09-27T04:28:03,42.805,6.029,-0.001,0.0,-0.005,104.0,104.0,102.0,13.3,1505.2,337.2,-0.8,1.8,2471.535,13.29,0.001,270.0
2023-09-27T04:31:03,42.805,6.029,0.002,-0.008,-0.001,103.0,103.0,102.0,13.4,1505.2,344.9,-0.8,1.8,2471.536,13.29,0.008,166.0
2023-09-27T04:34:03,42.805,6.029,0.0,-0.016,-0.022,103.0,103.0,102.0,13.3,1505.2,342.2,-0.8,1.8,2471.548,13.29,0.016,180.0
2023-09-27T04:37:03,42.805,6.029,-0.003,0.0,-0.019,103.0,104.0,102.0,13.3,1505.2,347.5,-0.8,1.8,2471.51,13.29,0.003,270.0
2023-09-27T04:40:03,42.805,6.029,-0.013,-0.014,-0.009,104.0,103.0,102.0,13.4,1505.2,334.3,-0.8,1.8,2471.53,13.29,0.019,222.9
2023-09-27T04:43:03,42.805,6.029,0.009,-0.013,-0.035,104.0,103.0,102.0,13.4,1505.2,328.7,-0.8,1.8,2471.559,13.29,0.015,145.3
2023-09-27T04:46:03,42.805,6.029,0.011,-0.014,0.018,103.0,104.0,102.0,13.4,1505.2,328.4,-0.8,1.8,2471.548,13.29,0.017,141.8
2023-09-27T04:49:03,42.805,6.029,-0.015,-0.008,-0.021,104.0,104.0,102.0,13.4,1505.2,333.8,-0.8,1.8,2471.576,13.29,0.017,241.9
2023-09-27T04:52:03,42.805,6.029,0.011,-0.025,-0.011,103.0,103.0,102.0,13.4,1505.2,350.5,-0.7,1.8,2471.531,13.29,0.027,156.3
2023-09-27T04:55:03,42.805,6.029,-0.006,-0.022,-0.045,103.0,103.0,102.0,13.3,1505.2,343.5,-0.7,1.8,2471.526,13.29,0.022,195.3
2023-09-27T04:58:03,42.805,6.029,-0.019,0.012,0.0,103.0,102.0,102.0,13.4,1505.2,332.2,-0.8,1.8,2471.529,13.29,0.022,302.3
2023-09-27T05:04:03,42.805,6.029,0.002,-0.019,-0.024,103.0,103.0,102.0,13.3,1505.2,343.9,-0.8,1.8,2471.547,13.28,0.019,174.0
2023-09-27T05:07:03,42.805,6.029,0.014,0.002,-0.035,103.0,104.0,100.0,13.3,1505.2,353.4,-0.7,1.8,2471.563,13.29,0.014,81.9
2023-09-27T05:10:03,42.805,6.029,0.004,-0.019,-0.038,104.0,102.0,103.0,13.4,1505.2,328.8,-0.8,1.8,2471.568,13.29,0.019,168.1
2023-09-27T05:13:03,42.805,6.029,-0.008,-0.009,-0.045,103.0,103.0,102.0,13.4,1505.2,355.9,-0.8,1.8,2471.554,13.29,0.012,221.6
2023-09-27T05:16:03,42.805,6.029,0.01,-0.014,-0.029,102.0,103.0,102.0,13.4,1505.2,337.2,-0.7,1.8,2471.57,13.29,0.017,144.5
2023-09-27T05:19:03,42.805,6.029,0.0,-0.011,-0.011,104.0,103.0,103.0,13.3,1505.2,347.0,-0.8,1.8,2471.578,13.29,0.011,180.0
2023-09-27T05:22:03,42.805,6.029,0.006,0.002,-0.004,104.0,104.0,102.0,13.4,1505.2,342.3,-0.8,1.8,2471.55,13.29,0.006,71.6
2023-09-27T05:25:03,42.805,6.029,0.002,-0.001,0.009,105.0,102.0,102.0,13.4,1505.2,334.7,-0.8,1.8,2471.558,13.29,0.002,116.6
2023-09-27T05:28:03,42.805,6.029,0.004,0.005,-0.026,103.0,103.0,101.0,13.4,1505.2,334.5,-0.8,1.8,2471.502,13.29,0.006,38.7
2023-09-27T05:31:03,42.805,6.029,0.016,0.002,-0.028,104.0,102.0,102.0,13.3,1505.2,354.3,-0.8,1.8,2471.532,13.29,0.016,82.9
2023-09-27T05:34:03,42.805,6.029,-0.01,-0.024,-0.042,104.0,102.0,102.0,13.4,1505.2,338.3,-0.7,1.8,2471.551,13.29,0.026,202.6
2023-09-27T05:37:03,42.805,6.029,0.007,-0.003,-0.038,103.0,103.0,103.0,13.4,1505.2,344.3,-0.8,1.8,2471.553,13.29,0.007,113.2
2023-09-27T05:40:03,42.805,6.029,0.0,-0.01,-0.013,104.0,103.0,102.0,13.4,1505.2,354.7,-0.8,1.8,2471.56,13.29,0.01,180.0
2023-09-27T05:43:03,42.805,6.029,0.003,-0.003,0.011,103.0,102.0,102.0,13.3,1505.2,340.1,-0.8,1.8,2471.542,13.29,0.004,135.0
2023-09-27T05:46:03,42.805,6.029,0.003,0.009,-0.008,105.0,103.0,102.0,13.4,1505.2,330.2,-0.8,1.8,2471.536,13.29,0.009,18.4
2023-09-27T05:49:03,42.805,6.029,0.007,-0.006,-0.031,104.0,102.0,102.0,13.4,1505.2,347.2,-0.8,1.8,2471.522,13.29,0.009,130.6
2023-09-27T05:52:03,42.805,6.029,0.002,-0.012,-0.009,103.0,102.0,101.0,13.3,1505.2,339.5,-0.8,1.8,2471.562,13.29,0.012,170.5
2023-09-27T05:55:03,42.805,6.029,0.006,-0.026,-0.059,103.0,103.0,101.0,13.4,1505.2,348.2,-0.7,1.8,2471.539,13.29,0.026,167.0
2023-09-27T05:58:03,42.805,6.029,-0.001,0.004,-0.021,104.0,103.0,102.0,13.4,1505.2,335.7,-0.8,1.8,2471.55,13.29,0.004,346.0
2023-09-27T06:04:03,42.805,6.029,-0.007,0.016,-0.008,106.0,104.0,102.0,13.4,1505.2,336.0,-0.8,1.8,2471.598,13.29,0.017,336.4
2023-09-27T06:07:03,42.805,6.029,0.009,-0.018,-0.016,103.0,103.0,102.0,13.4,1505.2,346.2,-0.8,1.8,2471.596,13.29,0.02,153.4
2023-09-27T06:10:03,42.805,6.029,0.016,-0.018,-0.031,104.0,103.0,102.0,13.3,1505.2,345.1,-0.7,1.8,2471.549,13.29,0.024,138.4
2023-09-27T06:13:03,42.805,6.029,0.005,0.005,-0.005,105.0,101.0,102.0,13.4,1505.2,334.2,-0.7,1.8,2471.563,13.29,0.007,45.0
2023-09-27T06:16:03,42.805,6.029,0.004,-0.016,-0.063,104.0,103.0,103.0,13.3,1505.2,349.5,-0.8,1.8,2471.545,13.29,0.016,166.0
2023-09-27T06:19:03,42.805,6.029,0.008,-0.024,-0.041,102.0,104.0,101.0,13.4,1505.2,338.0,-0.8,1.8,2471.532,13.29,0.025,161.6
2023-09-27T06:22:03,42.805,6.029,0.012,-0.018,0.001,103.0,103.0,102.0,13.4,1505.2,341.2,-0.7,1.8,2471.564,13.29,0.021,146.3
2023-09-27T06:25:03,42.805,6.029,0.011,-0.019,-0.04,104.0,104.0,103.0,13.3,1505.2,349.4,-0.7,1.8,2471.53,13.29,0.021,149.9
2023-09-27T06:28:03,42.805,6.029,0.002,-0.007,-0.009,103.0,104.0,102.0,13.4,1505.2,338.0,-0.7,1.8,2471.565,13.29,0.007,164.1
2023-09-27T06:31:03,42.805,6.029,0.017,-0.014,-0.024,106.0,102.0,103.0,13.3,1505.2,332.1,-0.7,1.8,2471.536,13.29,0.022,129.5
2023-09-27T06:34:03,42.805,6.029,0.008,-0.024,-0.026,101.0,103.0,102.0,13.3,1505.2,335.2,-0.7,1.8,2471.509,13.29,0.025,161.6
2023-09-27T06:37:03,42.805,6.029,0.018,-0.019,0.02,103.0,103.0,102.0,13.4,1505.2,355.9,-0.8,1.8,2471.538,13.29,0.026,136.5
2023-09-27T06:40:03,42.805,6.029,0.016,-0.021,-0.006,104.0,102.0,102.0,13.4,1505.2,336.2,-0.8,1.8,2471.54,13.29,0.026,142.7
2023-09-27T06:43:03,42.805,6.029,0.0,-0.018,-0.03,104.0,103.0,102.0,13.3,1505.2,346.2,-0.8,1.8,2471.55,13.29,0.018,180.0
2023-09-27T06:46:03,42.805,6.029,0.011,0.002,0.008,102.0,103.0,102.0,13.4,1505.2,341.2,-0.8,1.8,2471.535,13.29,0.011,79.7
2023-09-27T06:49:03,42.805,6.029,0.009,-0.015,-0.034,103.0,103.0,102.0,13.4,1505.2,346.7,-0.8,1.8,2471.493,13.29,0.017,149.0
2023-09-27T06:52:03,42.805,6.029,0.017,-0.022,-0.041,102.0,103.0,101.0,13.3,1505.2,334.2,-0.7,1.8,2471.52,13.29,0.027,142.3
2023-09-27T06:55:03,42.805,6.029,0.0,0.005,-0.012,105.0,103.0,101.0,13.4,1505.2,341.2,-0.8,1.8,2471.532,13.29,0.005,0.0
2023-09-27T06:58:03,42.805,6.029,-0.01,0.013,-0.027,103.0,103.0,101.0,13.4,1505.2,351.8,-0.7,1.8,2471.527,13.29,0.016,322.4
2023-09-27T07:04:03,42.805,6.029,0.013,0.002,-0.02,103.0,102.0,103.0,13.3,1505.2,345.7,-0.8,1.8,2471.549,13.29,0.013,81.3
2023-09-27T07:07:03,42.805,6.029,0.03,-0.019,-0.005,104.0,103.0,103.0,13.4,1505.2,342.5,-0.8,1.8,2471.574,13.29,0.035,122.3
2023-09-27T07:10:03,42.805,6.029,-0.003,-0.008,-0.024,103.0,105.0,102.0,13.3,1505.2,353.4,-0.8,1.8,2471.57,13.29,0.008,200.6
2023-09-27T07:13:03,42.805,6.029,0.011,-0.026,-0.044,105.0,104.0,102.0,13.4,1505.2,354.5,-0.8,1.9,2471.533,13.29,0.028,157.1
2023-09-27T07:16:03,42.805,6.029,0.0,0.0,-0.001,104.0,104.0,102.0,13.3,1505.2,327.3,-0.8,1.8,2471.523,13.29,0.0,0.0
2023-09-27T07:19:03,42.805,6.029,0.0,-0.005,-0.027,105.0,104.0,103.0,13.4,1505.2,345.7,-0.8,1.8,2471.515,13.29,0.005,180.0
2023-09-27T07:22:03,42.805,6.029,0.021,-0.012,-0.007,106.0,105.0,101.0,13.3,1505.2,347.3,-0.7,1.8,2471.569,13.29,0.024,119.7
2023-09-27T07:25:03,42.805,6.029,0.001,0.0,0.016,105.0,104.0,103.0,13.3,1505.2,345.5,-0.8,1.8,2471.536,13.29,0.001,90.0
2023-09-27T07:28:03,42.805,6.029,-0.006,-0.01,-0.032,105.0,104.0,103.0,13.4,1505.2,347.0,-0.7,1.8,2471.502,13.29,0.011,211.0
2023-09-27T07:31:03,42.805,6.029,-0.001,-0.011,0.019,103.0,105.0,103.0,13.4,1505.2,329.7,-0.8,1.8,2471.465,13.29,0.011,185.2
2023-09-27T07:34:03,42.805,6.029,0.003,-0.008,-0.029,105.0,104.0,102.0,13.4,1505.2,335.1,-0.8,1.8,2471.49,13.29,0.008,159.4
2023-09-27T07:37:03,42.805,6.029,0.025,-0.032,-0.021,103.0,103.0,103.0,13.4,1505.2,346.2,-0.8,1.9,2471.512,13.29,0.04,142.0
2023-09-27T07:40:03,42.805,6.029,0.009,-0.002,0.007,104.0,104.0,102.0,13.4,1505.2,344.5,-0.8,1.8,2471.535,13.29,0.009,102.5
2023-09-27T07:43:03,42.805,6.029,0.014,-0.003,-0.022,103.0,104.0,102.0,13.4,1505.2,335.7,-0.8,1.8,2471.514,13.29,0.014,102.1
2023-09-27T07:46:03,42.805,6.029,0.003,-0.026,-0.034,103.0,104.0,102.0,13.3,1505.2,346.7,-0.7,1.8,2471.531,13.29,0.026,173.4
2023-09-27T07:49:03,42.805,6.029,0.007,-0.012,-0.027,105.0,102.0,100.0,13.3,1505.2,349.8,-0.8,1.8,2471.499,13.29,0.013,149.7
2023-09-27T07:52:03,42.805,6.029,0.014,-0.016,-0.024,102.0,104.0,101.0,13.3,1505.2,348.4,-0.8,1.8,2471.486,13.29,0.021,138.8
2023-09-27T07:55:03,42.805,6.029,0.023,-0.011,-0.006,104.0,103.0,102.0,13.4,1505.2,342.1,-0.8,1.8,2471.514,13.29,0.025,115.6
2023-09-27T07:58:03,42.805,6.029,0.015,-0.019,-0.019,104.0,103.0,101.0,13.4,1505.2,346.7,-0.8,1.8,2471.467,13.29,0.024,141.7
2023-09-27T08:04:03,42.805,6.029,-0.003,-0.009,-0.016,103.0,103.0,101.0,13.3,1505.2,349.5,-0.8,1.8,2471.528,13.28,0.009,198.4
2023-09-27T08:07:03,42.805,6.029,0.006,-0.012,0.005,104.0,103.0,101.0,13.4,1505.2,327.0,-0.8,1.8,2471.547,13.29,0.013,153.4
2023-09-27T08:10:03,42.805,6.029,0.011,-0.004,0.001,103.0,103.0,102.0,13.3,1505.2,327.5,-0.8,1.8,2471.523,13.29,0.011,110.0
2023-09-27T08:13:03,42.805,6.029,0.01,0.007,-0.029,104.0,102.0,102.0,13.4,1505.2,338.0,-0.7,1.8,2471.497,13.29,0.012,55.0
2023-09-27T08:16:03,42.805,6.029,0.002,-0.006,-0.032,102.0,104.0,102.0,13.4,1505.2,356.8,-0.8,1.8,2471.552,13.29,0.006,161.6
2023-09-27T08:19:03,42.805,6.029,-0.007,-0.007,-0.04,103.0,103.0,101.0,13.3,1505.2,334.6,-0.8,1.8,2471.496,13.29,0.009,225.0
2023-09-27T08:22:03,42.805,6.029,0.007,-0.005,-0.019,103.0,102.0,102.0,13.4,1505.2,338.5,-0.7,1.8,2471.464,13.29,0.008,125.5
2023-09-27T08:25:03,42.805,6.029,0.018,-0.031,0.013,102.0,104.0,102.0,13.4,1505.2,337.0,-0.7,1.8,2471.495,13.29,0.035,149.9
2023-09-27T08:28:03,42.805,6.029,0.006,-0.021,-0.029,103.0,104.0,102.0,13.4,1505.2,350.0,-0.7,1.8,2471.484,13.29,0.021,164.1
2023-09-27T08:31:03,42.805,6.029,0.015,-0.023,-0.033,103.0,102.0,103.0,13.3,1505.2,342.3,-0.8,1.8,2471.449,13.29,0.027,146.9
2023-09-27T08:34:03,42.805,6.029,0.025,-0.015,0.0,104.0,102.0,102.0,13.4,1505.2,334.2,-0.8,1.8,2471.471,13.29,0.029,121.0
2023-09-27T08:37:03,42.805,6.029,0.019,-0.003,-0.005,104.0,103.0,102.0,13.3,1505.2,326.0,-0.7,1.8,2471.514,13.29,0.019,99.0
2023-09-27T08:40:03,42.805,6.029,0.001,-0.02,-0.038,103.0,103.0,102.0,13.3,1505.2,336.8,-0.8,1.8,2471.467,13.29,0.02,177.1
2023-09-27T08:43:03,42.805,6.029,0.017,-0.014,-0.012,104.0,103.0,102.0,13.4,1505.2,346.7,-0.8,1.8,2471.463,13.29,0.022,129.5
2023-09-27T08:46:03,42.805,6.029,0.013,-0.015,-0.03,103.0,103.0,102.0,13.4,1505.2,337.6,-0.7,1.8,2471.482,13.29,0.019,139.1
2023-09-27T08:49:03,42.805,6.029,0.017,-0.029,-0.053,103.0,103.0,102.0,13.4,1505.2,334.7,-0.7,1.8,2471.496,13.29,0.033,149.6
2023-09-27T08:52:03,42.805,6.029,0.003,-0.027,-0.034,103.0,104.0,102.0,13.4,1505.2,350.5,-0.7,1.8,2471.478,13.29,0.027,173.7
2023-09-27T08:55:03,42.805,6.029,0.02,-0.024,-0.008,104.0,104.0,103.0,13.3,1505.2,336.0,-0.7,1.8,2471.47,13.29,0.031,140.2
2023-09-27T08:58:03,42.805,6.029,0.003,-0.015,-0.013,103.0,103.0,102.0,13.3,1505.2,338.2,-0.7,1.8,2471.471,13.29,0.015,168.7
2023-09-27T09:04:03,42.805,6.029,0.005,-0.014,-0.018,103.0,104.0,102.0,13.3,1505.2,346.2,-0.8,1.8,2471.503,13.28,0.014,160.4
2023-09-27T09:07:03,42.805,6.029,-0.008,0.007,-0.025,103.0,104.0,103.0,13.4,1505.2,338.2,-0.7,1.8,2471.511,13.29,0.01,311.2
2023-09-27T09:10:03,42.805,6.029,0.007,0.001,-0.033,105.0,103.0,101.0,13.4,1505.2,333.4,-0.8,1.8,2471.489,13.29,0.007,81.9
2023-09-27T09:13:03,42.805,6.029,0.0,0.001,-0.005,102.0,104.0,103.0,13.3,1505.2,332.4,-0.7,1.8,2471.509,13.29,0.001,0.0
2023-09-27T09:16:03,42.805,6.029,0.017,-0.018,-0.013,104.0,103.0,104.0,13.4,1505.2,344.3,-0.7,1.8,2471.465,13.29,0.024,136.6
2023-09-27T09:19:03,42.805,6.029,0.003,-0.035,-0.013,103.0,104.0,103.0,13.4,1505.2,348.4,-0.8,1.8,2471.457,13.29,0.035,175.1
2023-09-27T09:22:03,42.805,6.029,0.003,-0.017,-0.016,104.0,106.0,102.0,13.4,1505.2,348.0,-0.8,1.8,2471.5,13.29,0.017,170.0
2023-09-27T09:25:03,42.805,6.029,0.015,-0.005,-0.002,104.0,104.0,103.0,13.3,1505.2,338.5,-0.8,1.8,2471.489,13.29,0.015,108.4
2023-09-27T09:28:03,42.805,6.029,0.031,-0.022,-0.001,103.0,104.0,102.0,13.4,1505.2,333.4,-0.7,1.8,2471.473,13.29,0.038,125.4
2023-09-27T09:31:03,42.805,6.029,0.026,-0.008,-0.002,103.0,105.0,101.0,13.3,1505.2,334.8,-0.8,1.8,2471.464,13.29,0.027,107.1
2023-09-27T09:34:03,42.805,6.029,0.02,-0.017,-0.031,103.0,103.0,101.0,13.3,1505.2,351.2,-0.8,1.8,2471.45,13.29,0.026,130.4
2023-09-27T09:37:03,42.805,6.029,0.013,-0.011,-0.015,104.0,103.0,102.0,13.3,1505.2,350.1,-0.8,1.8,2471.423,13.29,0.017,130.2
2023-09-27T09:40:03,42.805,6.029,0.024,-0.012,-0.016,103.0,103.0,102.0,13.4,1505.2,353.0,-0.8,1.8,2471.468,13.29,0.026,116.6
2023-09-27T09:43:03,42.805,6.029,0.013,-0.015,-0.017,105.0,103.0,103.0,13.4,1505.2,330.4,-0.8,1.8,2471.426,13.29,0.019,139.1
2023-09-27T09:46:03,42.805,6.029,0.0,-0.021,-0.046,104.0,104.0,102.0,13.4,1505.2,347.2,-0.8,1.8,2471.411,13.29,0.021,180.0
2023-09-27T09:49:03,42.805,6.029,0.017,-0.008,0.001,103.0,106.0,102.0,13.4,1505.2,336.8,-0.7,1.8,2471.465,13.29,0.018,115.2
2023-09-27T09:52:03,42.805,6.029,0.015,-0.035,-0.03,103.0,104.0,103.0,13.4,1505.2,342.9,-0.8,1.8,2471.421,13.29,0.038,156.8
2023-09-27T09:55:03,42.805,6.029,0.016,-0.031,-0.036,104.0,104.0,103.0,13.4,1505.2,338.7,-0.7,1.8,2471.413,13.29,0.034,152.7